GRACE-FO 2 (43477 NORAD) Tracking and Keplerian Element Data

This shows tracking and keplerian element data for the satellite.

Feedback or suggestion? Click here.




ElementValue
Catalog43477
NameGRACE-FO 2
Epoch Orbit438
Epoch Day171.6344834
Epoch Year2018
RAAN235.2449
Inclination88.9939
Eccentricity0.0018188
Argument of Perigee159.7971
Mean Anonmoly200.4
Mean Motion15.23704243
Decay Rate2.76E-06
L11 43477U 18047B 18171.63448340 .00000276 00000-0 10138-4 0 9997
L22 43477 88.9939 235.2449 0018188 159.7971 200.4000 15.23704243 4389

Live tracking and technical data element details for GRACE-FO 2 (NORAD 43477). GRACE-FO 2 can be tracked NOW for your location showing map with azimuth and elevation plus other details from your city location.

Track the satellite on the map from your city or location and see movement details for azimuth, elevation, latitude, longitude, range, height, and movement on the map or in text.







IsCatalogInMostPopularTable: catalog: 43477, numindb: 15
Update: records affected: 1



GetName: 43477 GRACE-FO 2

Hit Count: updated at: Fri, 20 Jul 2018 20:37:48 GMT